USA 149 (DSP 20)

Last updated on Sun Oct 06 2024 00:02:38 GMT+0000 (Coordinated Universal Time)

1 26356U 00024A 24279.50796546 .00000106 00000+0 00000+0 0 9999 2 26356 12.7003 16.0604 0001166 56.8372 319.4295 1.00262279 25390
UTC large
Height (km)
Speed (km/s)
/
Latitude / Longitude
Inclination (degrees)
Orbital Period (minutes)
Azimuth
Elevation
Range (km)
Doppler Factor

Next 0 passes for location: London (51.5072 / 0.1276)

Sorry there are no passes over London.